Weather Roundup
Issued by NWS

Home | Current Version | Previous Version | Graphics & Text | Print | Product List | Glossary Off
Versions: 1 2 3 4 5 6 7 8 9 10 11 12 13 14 15 16 17 18 19 20 21 22 23 24 25 26 27 28 29 30 31 32 33 34 35 36 37 38 39 40 41 42 43 44 45 46 47 48 49 50

560
NZUS93 KARX 282110
HRRWXR

CURRENT HOURLY OBSERVATIONS ACROSS
MUCH OF THE UPPER MISSISSIPPI VALLEY
NATIONAL WEATHER SERVICE LA CROSSE WI
400 PM CDT THU APR 28 2016


...SOUTHEAST MINNESOTA...


CITY           SKY/WX    TMP DP  RH WIND       PRES   REMARKS
ROCHESTER      LGT RAIN  39  38  96 NE10      29.98R FOG     WCI  32
ROCHESTER/MAYO CLOUDY    39  39 100 NE8       29.99S WCI  33
WINONA         CLOUDY    41  37  87 E6        30.00S FOG
AUSTIN         CLOUDY    41  37  87 NE7       29.97R FOG
ALBERT LEA     CLOUDY    39  39 100 NE10      29.97S WCI  32
DODGE CENTER   DRIZZLE   37  36  93 E9        29.99R WCI  31
PRESTON        LGT RAIN  39  36  88 NE8       29.97R WCI  34
OWATONNA       LGT RAIN  39  36  87 NE9       30.00R WCI  33
FARIBAULT      CLOUDY    39  37  93 NE9       30.01R WCI  33
$$

...ELSEWHERE IN MINNESOTA...


CITY           SKY/WX    TMP DP  RH WIND       PRES   REMARKS
MINNEAPOLIS    LGT RAIN  41  35  79 NE20      30.04R
INTNL FALLS    MOSUNNY   54  26  34 N10G17    30.11F
DULUTH         PTSUNNY   44  23  43 E17       30.09F
RED WING       RAIN      41  37  87 E3        30.01S
REDWOOD FALLS  CLOUDY    41  37  86 NE7       30.03R
MANKATO        CLOUDY    39  36  87 E8        30.01R WCI  34
WORTHINGTON    CLOUDY    39  36  89 NE12      30.00R WCI  32
FAIRMONT       CLOUDY    39  30  70 NE13      29.98R WCI  32
$$

...SOUTHWEST WISCONSIN...


CITY           SKY/WX    TMP DP  RH WIND       PRES   REMARKS
LA CROSSE      CLOUDY    42  39  89 E3        29.99S FOG
PRAIRIE DU CHI CLOUDY    44  38  78 NE7       29.96R
BOSCOBEL       CLOUDY    45  39  79 E8        29.97R
LONE ROCK      LGT RAIN  42  38  85 E12       29.98R FOG
PLATTEVILLE    CLOUDY    45  41  86 NE13      29.93R
FORT MC COY    CLOUDY    40  39  95 E7        29.99S FOG
CAMP DOUGLAS   CLOUDY    41  41 100 E8        29.99S
MAUSTON-NEW LI NOT AVBL
VIROQUA        CLOUDY    40  39  97 E13       29.96S WCI  32
WIS DELLS      LGT RAIN  39  37  92 E12G17    29.97S WCI  32
$$

...ELSEWHERE IN WISCONSIN...


CITY           SKY/WX    TMP DP  RH WIND       PRES   REMARKS
MILWAUKEE      CLOUDY    40  37  89 E15       29.98S WCI  32
MADISON        DRIZZLE   40  37  89 E15       29.96S WCI  32
GREEN BAY      CLOUDY    47  28  47 E12       30.03S
EAU CLAIRE     LGT RAIN  43  36  76 E9        30.02S
BLACK RVR FLS  LGT RAIN  41  40  97 E8        30.00R
MEDFORD        CLOUDY    43  31  63 SE8       30.01S
WAUSAU         LGT RAIN  42  34  73 SE7       30.02R
WIS RAPIDS     LGT RAIN  39  36  89 E12       30.02F WCI  32
MARSHFIELD     LGT RAIN  40  35  83 E14       30.00S WCI  32
RICE LAKE      CLOUDY    51  26  37 NE8       30.02S
$$

...NORTHEAST IOWA...


CITY           SKY/WX    TMP DP  RH WIND       PRES   REMARKS
WATERLOO       CLOUDY    49  46  90 NE10      29.91R FOG
DUBUQUE        LGT RAIN  45  44  97 NE7       29.92R FOG
DECORAH        CLOUDY    43  41  93 NE13      29.94R
MASON CITY     CLOUDY    45  42  89 NE13      29.96R
CHARLES CITY   CLOUDY    45  45 100 NE10      29.94S FOG
OELWEIN        CLOUDY    46  46 100 NE13      29.93R FOG
$$

...ELSEWHERE IN IOWA...


CITY           SKY/WX    TMP DP  RH WIND       PRES   REMARKS
DES MOINES     CLOUDY    58  48  69 W17       29.90R
IOWA CITY      CLOUDY    55  47  74 NW9       29.91R
FORT DODGE     CLOUDY    46  41  81 N6        29.95R
MARSHALLTOWN   LGT RAIN  50  48  93 NW10      29.90R FOG
CEDAR RAPIDS   CLOUDY    52  49  89 SW9       29.88R
$$

...NORTHERN ILLINOIS...


CITY           SKY/WX    TMP DP  RH WIND       PRES   REMARKS
CHICAGO-OHARE  CLOUDY    46  40  79 NE8       29.93R
CHICAGO-MIDWAY CLOUDY    50  42  74 E9        29.92R
MOLINE         CLOUDY    55  49  80 CALM      29.89S HAZE
ROCKFORD       CLOUDY    50  42  74 NE10      29.94R
PEORIA         PTSUNNY   61  47  59 W17G25    29.90R
$$

NOTE: "FAIR" INDICATES FEW OR NO CLOUDS BELOW 12,000 FEET WITH NO
SIGNIFICANT WEATHER AND/OR OBSTRUCTIONS TO VISIBILITY. WIND
SPEEDS ARE IN MILES-PER-HOUR.




USA.gov is the U.S. government's official web portal to all federal, state and local government web resources and services.